TimeMDT,TemperatureF,Dew PointF,Humidity,Sea Level PressureIn,VisibilityMPH,Wind Direction,Wind SpeedMPH,Gust SpeedMPH,PrecipitationIn,Events,Conditions,WindDirDegrees,DateUTC
12:53 AM,80.1,62.1,54,29.82,10.0,South,3.5,-,N/A,,Clear,180,2013-07-01 06:53:00
1:53 AM,80.1,57.0,45,29.83,10.0,SSW,5.8,-,N/A,,Clear,200,2013-07-01 07:53:00
2:53 AM,80.1,53.1,39,29.87,10.0,Calm,Calm,-,N/A,,Clear,0,2013-07-01 08:53:00
3:53 AM,81.0,52.0,36,29.83,10.0,NE,11.5,-,N/A,,Clear,50,2013-07-01 09:53:00
4:53 AM,80.1,50.0,35,29.82,10.0,SE,15.0,-,N/A,,Clear,140,2013-07-01 10:53:00
5:53 AM,78.1,48.9,36,29.83,10.0,WNW,4.6,-,N/A,,Clear,290,2013-07-01 11:53:00
6:53 AM,75.9,48.0,37,29.88,10.0,ESE,4.6,-,N/A,,Clear,120,2013-07-01 12:53:00
7:53 AM,80.1,48.9,34,29.89,10.0,ESE,8.1,-,N/A,,Clear,110,2013-07-01 13:53:00
8:53 AM,86.0,48.9,28,29.89,10.0,SE,8.1,-,N/A,,Clear,130,2013-07-01 14:53:00
9:53 AM,90.0,46.9,23,29.89,10.0,SE,9.2,-,N/A,,Clear,140,2013-07-01 15:53:00
10:53 AM,93.9,46.0,19,29.88,10.0,SSE,6.9,-,N/A,,Clear,160,2013-07-01 16:53:00
11:53 AM,97.0,46.0,18,29.87,10.0,NE,3.5,-,N/A,,Clear,40,2013-07-01 17:53:00
12:53 PM,100.9,48.0,17,29.86,10.0,North,8.1,-,N/A,,Clear,350,2013-07-01 18:53:00
1:53 PM,104.0,48.0,15,29.83,10.0,NNW,8.1,-,N/A,,Clear,330,2013-07-01 19:53:00
2:53 PM,106.0,43.0,12,29.81,10.0,NNW,4.6,-,N/A,,Clear,330,2013-07-01 20:53:00
3:53 PM,107.1,41.0,11,29.79,10.0,WNW,6.9,-,N/A,,Clear,290,2013-07-01 21:53:00
4:53 PM,109.0,44.1,11,29.77,10.0,NNW,8.1,-,N/A,,Clear,340,2013-07-01 22:53:00
5:53 PM,108.0,37.9,9,29.77,10.0,NW,9.2,-,N/A,,Clear,320,2013-07-01 23:53:00
6:53 PM,109.0,35.1,8,29.76,10.0,NNW,6.9,-,N/A,,Clear,330,2013-07-02 00:53:00
7:53 PM,107.1,39.9,10,29.75,10.0,NW,10.4,-,N/A,,Clear,310,2013-07-02 01:53:00
8:53 PM,100.9,48.9,17,29.77,10.0,WSW,6.9,-,N/A,,Clear,250,2013-07-02 02:53:00
9:53 PM,95.0,55.0,26,29.81,10.0,WNW,12.7,-,N/A,,Clear,290,2013-07-02 03:53:00
10:53 PM,97.0,42.1,15,29.86,10.0,Variable,4.6,-,N/A,,Clear,0,2013-07-02 04:53:00
11:53 PM,93.9,41.0,16,29.87,10.0,SSW,8.1,-,N/A,,Clear,200,2013-07-02 05:53:00